Regional Weather Roundup
Issued by NWS Kansas City/Pleasant Hill, MO

Home | Current Version | Previous Version | Text Only | Print | Product List | Glossary Off
Versions: 1 2 3 4 5 6 7 8 9 10 11 12 13 14 15 16 17 18 19 20 21 22 23 24 25 26 27 28 29 30 31 32 33 34 35 36 37 38 39 40 41 42 43 44 45 46 47 48 49 50

000
ASUS43 KEAX 182010
RWREAX

WEATHER ROUNDUP FOR EASTERN KANSAS AND NORTHWEST MISSOURI
NATIONAL WEATHER SERVICE KANSAS CITY/PLEASANT HILL MO
200 PM CST SAT NOV 18 2017

KSZ040-057-103>105-MOZ028-029-037-043-182100-
...KANSAS CITY METROPOLITAN AREA...

CITY           SKY/WX    TMP DP  RH WIND       PRES   REMARKS
K.C. INTL      PTSUNNY   49  32  52 NW20G28   29.95R
K.C. DOWNTOWN  PTSUNNY   50  31  48 NW18G26   29.95R
LEES SUMMIT    CLOUDY    47  32  56 NW23G29   29.94R
OLATHE - IXD   CLOUDY    48  31  51 NW26G38   29.98R
OLATHE - OJC   PTSUNNY   47  29  49 N16G31    29.96R
LAWRENCE       CLOUDY    52  33  48 NW30G36   29.99R

$$

MOZ001>008-011>017-020>025-030>033-038>040-044>046-053-054-182100-
...NORTHERN AND CENTRAL MISSOURI...

CITY           SKY/WX    TMP DP  RH WIND       PRES   REMARKS
ST. JOSEPH     PTSUNNY   50  32  50 NW25G31   29.97R
MOSBY          MOCLDY    46  32  57 NW20G26   29.94R
WARRENSBURG    CLOUDY    46  34  61 NW17G30   29.92R
WHITEMAN AFB   PTSUNNY   46  36  69 NW15G23   29.85R
CLINTON        CLOUDY    46  39  76 MISG      29.92R
SEDALIA        CLOUDY    45  40  82 NW20G30   29.88R
WARSAW         NOT AVBL
CHILLICOTHE      N/A     47  34  60 NW14G28   29.89R
KIRKSVILLE     CLOUDY    44  35  70 NW16G25   29.80R

$$

MOZ041-047>049-056>058-063>065-088>090-097-182100-
...EASTERN AND SOUTHERN MISSOURI...

CITY           SKY/WX    TMP DP  RH WIND       PRES   REMARKS
ST. LOUIS INTL RAIN      40  38  93 NW18G31   29.66R FOG     WCI  31
SPIRIT OF STL  RAIN      42  39  89 NW16G29   29.69R FOG     WCI  34
COLUMBIA       CLOUDY    44  41  89 NW21G29   29.79R
JEFFERSON CITY LGT RAIN  44  40  85 NW20G26   29.80R
ROLLA          RAIN      40  39  97 NW20G35   29.77R FOG     WCI  30
OSAGE BEACH    LGT RAIN  43  41  93 NW10      29.86R
SPRINGFIELD    LGT RAIN  43  41  93 NW13G23   29.91R
BRANSON        LGT RAIN  45  37  76 NW25G40   29.89R
JOPLIN         CLOUDY    46  37  71 NW22G31   30.00R
WEST PLAINS    LGT RAIN  47  38  71 NW18G41   29.76R

$$

IAZ060-094-KSZ022-034>040-054-083-096-NEZ052-066-093-182100-
...KANSAS...SOUTHEAST NEBRASKA AND IOWA...

CITY           SKY/WX    TMP DP  RH WIND       PRES   REMARKS
TOPEKA         MOSUNNY   52  37  56 NW17G31   30.01R
MANHATTAN      MOSUNNY   55  33  43 N13G23    30.05S
EMPORIA        PTSUNNY   51  35  54 NW23G36   30.03R
CHANUTE        CLOUDY    50  34  54 NW15G28   30.02R
WICHITA        MOSUNNY   56  35  45 N22       30.08F
OMAHA          MOSUNNY   47  30  51 NW24G38   29.99R
LINCOLN        MOSUNNY   50  29  44 NW30G36   30.04R
FALLS CITY     MOSUNNY   50  31  48 NW23G40   29.99R
LAMONI         CLOUDY    46  30  53 NW24G35   29.88R
DES MOINES     MOSUNNY   45  29  53 NW20G32   29.86R

$$




USA.gov is the U.S. government's official web portal to all federal, state and local government web resources and services.